When you browse on this site, cookies collect data to enhance your experience and personalize the content and advertising you see.
Visit our Privacy Policy to learn more. By continuing to use the site, you agree to this use of cookies and data.
  • In Sweden
  • List of Countries
  • For 7 days
  • Water Temperature
  • Satellite Maps
  • Weather Map
  • Weather Widgets
  • user-avatar
    Login

    Hourly Weather Laski

    Today, 27 May, Monday

    Time Temperature Precipitation Wind Pressure Humidity
    00:00 +14°C° 0 mm 3 mps 743 mmHg 85%
    01:00 +14°C° 0 mm 3 mps 743 mmHg 87%
    02:00 +13°C° 0 mm 3 mps 742 mmHg 88%
    03:00 +13°C° 0 mm 3 mps 742 mmHg 89%
    04:00 +13°C° 0 mm 3 mps 742 mmHg 91%
    05:00 +14°C° 0 mm 4 mps 742 mmHg 85%
    06:00 +17°C° 0 mm 4 mps 742 mmHg 80%
    07:00 +19°C° 0 mm 5 mps 742 mmHg 74%
    08:00 +20°C° 0 mm 5 mps 742 mmHg 67%
    09:00 +22°C° 0 mm 5 mps 742 mmHg 61%
    10:00 +25°C° 0 mm 5 mps 742 mmHg 54%
    11:00 +25°C° 0.1 mm 5 mps 742 mmHg 54%
    12:00 +25°C° 0.1 mm 4 mps 741 mmHg 54%
    13:00 +26°C° 0.1 mm 4 mps 741 mmHg 53%
    14:00 +25°C° 0.7 mm 4 mps 741 mmHg 56%
    15:00 +25°C° 0.7 mm 3 mps 740 mmHg 59%
    16:00 +25°C° 0.7 mm 3 mps 740 mmHg 61%
    17:00 +24°C° 0.3 mm 3 mps 740 mmHg 66%
    18:00 +23°C° 0.3 mm 2 mps 740 mmHg 71%
    19:00 +22°C° 0.3 mm 1 mps 740 mmHg 76%
    20:00 +20°C° 0.5 mm 2 mps 739 mmHg 80%
    21:00 +19°C° 0.5 mm 2 mps 739 mmHg 84%
    22:00 +18°C° 0.5 mm 2 mps 739 mmHg 87%
    23:00 +17°C° 0.5 mm 3 mps 739 mmHg 89%

    Tomorrow, 28 May, Tuesday

    Time Temperature Precipitation Wind Pressure Humidity
    00:00 +17°C° 0.5 mm 3 mps 738 mmHg 91%
    01:00 +17°C° 0.5 mm 3 mps 738 mmHg 93%
    02:00 +17°C° 1.8 mm 4 mps 738 mmHg 93%
    03:00 +17°C° 1.8 mm 4 mps 737 mmHg 92%
    04:00 +15°C° 1.8 mm 4 mps 737 mmHg 91%
    05:00 +16°C° 0 mm 5 mps 737 mmHg 88%
    06:00 +17°C° 0 mm 6 mps 737 mmHg 84%
    07:00 +17°C° 0 mm 7 mps 736 mmHg 80%
    08:00 +17°C° 0 mm 6 mps 736 mmHg 79%
    09:00 +17°C° 0 mm 6 mps 737 mmHg 78%
    10:00 +19°C° 0 mm 6 mps 737 mmHg 78%
    11:00 +20°C° 0.2 mm 5 mps 737 mmHg 74%
    12:00 +21°C° 0.2 mm 5 mps 737 mmHg 70%
    13:00 +22°C° 0.2 mm 5 mps 737 mmHg 66%
    14:00 +22°C° 1 mm 4 mps 737 mmHg 69%
    15:00 +21°C° 1 mm 4 mps 737 mmHg 72%
    16:00 +21°C° 1 mm 3 mps 737 mmHg 75%
    17:00 +19°C° 1.4 mm 4 mps 737 mmHg 81%
    18:00 +17°C° 1.4 mm 5 mps 737 mmHg 86%
    19:00 +15°C° 1.4 mm 6 mps 738 mmHg 92%
    20:00 +14°C° 0.7 mm 6 mps 738 mmHg 92%
    21:00 +12°C° 0.7 mm 7 mps 739 mmHg 93%
    22:00 +11°C° 0.7 mm 7 mps 739 mmHg 93%
    23:00 +11°C° 0.7 mm 7 mps 740 mmHg 93%

    Day after tomorrow, 29 May, Wednesday

    Time Temperature Precipitation Wind Pressure Humidity
    00:00 +11°C° 0.7 mm 7 mps 740 mmHg 93%
    01:00 +10°C° 0.7 mm 6 mps 741 mmHg 93%
    02:00 +9°C° 0.4 mm 6 mps 741 mmHg 92%
    03:00 +9°C° 0.4 mm 6 mps 742 mmHg 91%
    04:00 +8°C° 0.4 mm 5 mps 743 mmHg 89%
    05:00 +8°C° 0 mm 5 mps 743 mmHg 87%
    06:00 +8°C° 0 mm 5 mps 744 mmHg 85%
    07:00 +8°C° 0 mm 5 mps 745 mmHg 83%
    08:00 +10°C° 0 mm 5 mps 745 mmHg 78%
    09:00 +12°C° 0 mm 5 mps 746 mmHg 72%
    10:00 +14°C° 0 mm 5 mps 746 mmHg 67%
    11:00 +14°C° 0 mm 5 mps 746 mmHg 64%
    12:00 +15°C° 0 mm 5 mps 746 mmHg 62%
    13:00 +16°C° 0 mm 5 mps 746 mmHg 59%
    14:00 +16°C° 0 mm 5 mps 746 mmHg 60%
    15:00 +17°C° 0 mm 4 mps 747 mmHg 60%
    16:00 +17°C° 0 mm 4 mps 747 mmHg 60%
    17:00 +15°C° 0 mm 4 mps 747 mmHg 65%
    18:00 +14°C° 0 mm 3 mps 747 mmHg 71%
    19:00 +13°C° 0 mm 3 mps 747 mmHg 76%
    20:00 +12°C° 0 mm 3 mps 747 mmHg 78%
    21:00 +12°C° 0 mm 2 mps 748 mmHg 79%
    22:00 +10°C° 0 mm 2 mps 748 mmHg 80%
    23:00 +10°C° 0 mm 2 mps 748 mmHg 81%

    30 May, Thursday

    Time Temperature Precipitation Wind Pressure Humidity
    00:00 +9°C° 0 mm 2 mps 748 mmHg 82%
    01:00 +9°C° 0 mm 2 mps 748 mmHg 84%
    02:00 +8°C° 0 mm 2 mps 749 mmHg 83%
    03:00 +8°C° 0 mm 2 mps 749 mmHg 82%
    04:00 +8°C° 0 mm 2 mps 749 mmHg 81%
    05:00 +9°C° 0 mm 2 mps 749 mmHg 77%
    06:00 +10°C° 0 mm 2 mps 749 mmHg 72%
    07:00 +12°C° 0 mm 2 mps 750 mmHg 68%
    08:00 +13°C° 0 mm 2 mps 750 mmHg 65%
    09:00 +14°C° 0 mm 2 mps 750 mmHg 61%
    10:00 +15°C° 0 mm 2 mps 750 mmHg 58%
    11:00 +16°C° 0 mm 2 mps 750 mmHg 55%
    12:00 +18°C° 0 mm 1 mps 749 mmHg 52%
    13:00 +19°C° 0 mm 1 mps 749 mmHg 49%
    14:00 +20°C° 0 mm 1 mps 749 mmHg 48%
    15:00 +20°C° 0 mm 1 mps 749 mmHg 47%
    16:00 +20°C° 0 mm 1 mps 749 mmHg 47%
    17:00 +19°C° 0 mm 1 mps 749 mmHg 52%
    18:00 +18°C° 0 mm 1 mps 749 mmHg 58%
    19:00 +16°C° 0 mm 2 mps 749 mmHg 64%
    20:00 +15°C° 0 mm 2 mps 749 mmHg 63%
    21:00 +14°C° 0 mm 2 mps 749 mmHg 62%
    22:00 +13°C° 0 mm 2 mps 749 mmHg 61%
    23:00 +12°C° 0 mm 2 mps 749 mmHg 62%

    31 May, Friday

    Time Temperature Precipitation Wind Pressure Humidity
    00:00 +12°C° 0 mm 2 mps 749 mmHg 63%
    01:00 +10°C° 0 mm 2 mps 749 mmHg 64%
    02:00 +10°C° 0 mm 2 mps 748 mmHg 68%
    03:00 +10°C° 0 mm 2 mps 748 mmHg 72%
    04:00 +10°C° 0 mm 2 mps 748 mmHg 76%
    05:00 +12°C° 0 mm 2 mps 748 mmHg 74%
    06:00 +14°C° 0 mm 2 mps 748 mmHg 72%
    07:00 +16°C° 0 mm 2 mps 748 mmHg 70%
    08:00 +18°C° 0 mm 1 mps 748 mmHg 66%
    09:00 +20°C° 0 mm 1 mps 747 mmHg 62%
    10:00 +22°C° 0 mm 1 mps 747 mmHg 58%
    11:00 +23°C° 0 mm 1 mps 747 mmHg 56%
    12:00 +23°C° 0 mm 1 mps 746 mmHg 54%
    13:00 +24°C° 0 mm 1 mps 746 mmHg 53%
    14:00 +24°C° 0.5 mm 2 mps 746 mmHg 57%
    15:00 +23°C° 0.5 mm 2 mps 746 mmHg 62%
    16:00 +22°C° 0.5 mm 3 mps 746 mmHg 67%
    17:00 +20°C° 0.9 mm 3 mps 746 mmHg 74%
    18:00 +19°C° 0.9 mm 3 mps 746 mmHg 81%
    19:00 +18°C° 0.9 mm 4 mps 746 mmHg 88%
    20:00 +17°C° 0.9 mm 4 mps 746 mmHg 90%
    21:00 +15°C° 0.9 mm 5 mps 747 mmHg 92%
    22:00 +15°C° 0.9 mm 6 mps 747 mmHg 94%
    23:00 +14°C° 0.6 mm 6 mps 747 mmHg 93%

    1 June, Saturday

    Time Temperature Precipitation Wind Pressure Humidity
    00:00 +12°C° 0.6 mm 7 mps 747 mmHg 93%
    01:00 +12°C° 0.6 mm 7 mps 748 mmHg 93%
    02:00 +11°C° 0.4 mm 7 mps 748 mmHg 93%
    03:00 +10°C° 0.4 mm 7 mps 748 mmHg 93%
    04:00 +10°C° 0.4 mm 6 mps 749 mmHg 93%
    05:00 +10°C° 0.1 mm 6 mps 749 mmHg 92%
    06:00 +9°C° 0.1 mm 7 mps 750 mmHg 92%
    07:00 +9°C° 0.1 mm 7 mps 750 mmHg 92%
    08:00 +9°C° 0.1 mm 6 mps 750 mmHg 90%
    09:00 +9°C° 0.1 mm 6 mps 751 mmHg 88%
    10:00 +10°C° 0.1 mm 6 mps 751 mmHg 87%
    11:00 +11°C° 0 mm 6 mps 751 mmHg 77%
    12:00 +14°C° 0 mm 7 mps 751 mmHg 68%
    13:00 +16°C° 0 mm 7 mps 751 mmHg 58%
    14:00 +16°C° 0 mm 7 mps 751 mmHg 57%
    15:00 +16°C° 0 mm 7 mps 751 mmHg 56%
    16:00 +16°C° 0 mm 7 mps 751 mmHg 55%
    17:00 +15°C° 0 mm 6 mps 752 mmHg 59%
    18:00 +14°C° 0 mm 5 mps 752 mmHg 63%
    19:00 +13°C° 0 mm 4 mps 752 mmHg 67%
    20:00 +12°C° 0 mm 4 mps 752 mmHg 64%
    21:00 +10°C° 0 mm 4 mps 753 mmHg 62%
    22:00 +8°C° 0 mm 4 mps 753 mmHg 59%
    23:00 +7°C° 0 mm 4 mps 753 mmHg 61%
    Show more